Group_ship,Cruise,JD_GMT,Date_DDMMYYYY,TIME_HH:MM:SS,Lat_dec_degree,Long_dec_degree,xCO2eq_ppm,xCO2a_ppm,Pres_Equi_hPa,Pres_sealevel_hPa,EqTemp_C,SST(TSG)_C,Sal(TSG)_Permil,Water_flow_l/min,Gasflow_IR_ml/min,Temp_IR_C,Pres_IR_hPa,Ship_heading_true_degree,Ship_speed_knot,Wind_dir_rel_degree,Wind_speed_rel_m/s,fCO2W@SST_uatm,Qcflag_water,fCO2a_uatm,Qcflag_air,dfCO2_uatm,Fluoro_ug/l,Wind_speed_true_m/s,Wind_dir_true_degree,Air_temp_C,Oxygen
AOML_Explorer,Ex0516E,108.093,18042005,2:14:01,26.174,-78.741,356.16,-9,1020.09,1016.87,24.53,24.53,36.452,1.102683,80.53,31.05,1020.09,107,22.4,283,18.41,346.87,2,-9,9,-9,0.15,20.04,351.95,21.52,-9
AOML_Explorer,Ex0516E,108.095,18042005,2:16:34,26.17,-78.724,356.3,-9,1020.2,1017.18,24.46,24.52,36.445,1.118951,80.07,31.05,1020.2,107.1,22.3,284.9,18.11,347.74,2,-9,9,-9,0.15,19.47,353.06,21.6,-9
AOML_Explorer,Ex0516E,108.097,18042005,2:19:07,26.165,-78.708,356.26,-9,1020.01,1017.13,24.42,24.51,36.444,1.105936,80.5,31.06,1020.01,107.4,22.2,287.7,17.71,348.1,2,-9,9,-9,0.15,18.67,354.39,21.73,-9
AOML_Explorer,Ex0516E,108.098,18042005,2:21:40,26.16,-78.691,356.05,-9,1020.07,1017.19,24.41,24.5,36.447,1.143251,79.42,31.06,1020.07,107.3,22.4,288.4,17.61,347.93,2,-9,9,-9,0.16,18.49,354.58,21.88,-9
AOML_Explorer,Ex0516E,108.1,18042005,2:24:13,26.156,-78.674,355.85,-9,1020.18,1017.17,24.4,24.48,36.453,1.12373,80.63,31.06,1020.18,106.7,22.7,285.1,17.71,347.59,2,-9,9,-9,0.15,19.21,351.49,21.65,-9
AOML_Explorer,Ex0516E,108.102,18042005,2:26:46,26.151,-78.657,355.72,-9,1019.84,1017.15,24.39,24.46,36.46,1.144268,80.38,31.06,1019.84,107,22.7,286.9,17.91,347.3,2,-9,9,-9,0.16,19,353.47,21.94,-9
AOML_Explorer,Ex0516E,108.104,18042005,2:29:19,26.146,-78.64,355.7,-9,1019.76,1016.89,24.37,24.43,36.471,1.153927,79.77,31.06,1019.76,107.3,22.7,281.5,18.51,347.22,2,-9,9,-9,0.16,20.54,350.68,21.65,-9
AOML_Explorer,Ex0516E,108.105,18042005,2:31:52,26.141,-78.623,355.45,-9,1019.78,1016.62,24.35,24.4,36.487,1.150165,81.13,31.06,1019.78,107.5,22.8,282.6,18.61,346.88,2,-9,9,-9,0.15,20.37,351.94,21.7,-9
AOML_Explorer,Ex0516E,108.107,18042005,2:34:25,26.137,-78.606,355.36,-9,1019.85,1017.18,24.33,24.35,36.516,1.160028,78.81,31.06,1019.85,106.7,22.6,288,17.31,346.37,2,-9,9,-9,0.14,18.25,353.2,21.76,-9
AOML_Explorer,Ex0516E,108.109,18042005,2:36:58,26.132,-78.589,355.27,-9,1019.88,1017.18,24.28,24.3,36.538,1.177109,79.28,31.06,1019.88,107.2,22.6,287.4,16.81,346.35,2,-9,9,-9,0.15,17.97,352.23,21.9,-9
AOML_Explorer,Ex0516E,108.111,18042005,2:39:31,26.127,-78.572,355.29,-9,1019.8,1016.87,24.23,24.28,36.534,1.162265,80.25,31.06,1019.8,107.1,22.5,283.7,18.41,346.69,2,-9,9,-9,0.14,19.99,352.31,21.9,-9
AOML_Explorer,Ex0516E,108.113,18042005,2:42:04,26.122,-78.555,355.26,-9,1019.75,1016.87,24.21,24.28,36.528,1.165417,79.89,31.06,1019.75,107.8,22.5,287.8,18.31,347.07,2,-9,9,-9,0.15,19.18,355.73,21.91,-9
AOML_Explorer,Ex0516E,108.114,18042005,2:44:37,26.118,-78.538,355.22,-9,1019.9,1016.6,24.2,24.28,36.529,1.18199,80.04,31.06,1019.9,107.1,22.5,284.5,19.81,347.13,2,-9,9,-9,0.15,21.09,354.95,21.9,-9
AOML_Explorer,Ex0516E,108.116,18042005,2:47:10,26.113,-78.521,354.95,-9,1020.03,1017.14,24.2,24.3,36.53,1.172839,79.62,31.06,1020.03,107.3,22.5,286.2,17.71,347.15,2,-9,9,-9,0.14,18.51,354.64,22,-9
AOML_Explorer,Ex0516E,108.118,18042005,2:49:43,26.108,-78.504,354.87,-9,1019.97,1016.88,24.19,24.26,36.543,1.213306,80.74,31.05,1019.97,107.2,22.5,284.9,18.11,346.61,2,-9,9,-9,0.14,19.6,352.41,21.91,-9
AOML_Explorer,Ex0516E,108.12,18042005,2:52:16,26.103,-78.487,354.86,-9,1020.04,1017.42,24.2,24.21,36.556,1.399067,80.92,31.05,1020.04,107.7,22.5,290.5,16.71,345.96,2,-9,9,-9,0.15,17.45,354.45,21.8,-9
AOML_Explorer,Ex0516E,108.121,18042005,2:54:49,26.099,-78.47,354.78,-9,1019.76,1016.59,24.16,24.19,36.537,1.426214,80.83,31.04,1019.76,107,22.4,284.4,18.51,346.11,2,-9,9,-9,0.14,20,352.64,21.83,-9
AOML_Explorer,Ex0516E,108.123,18042005,2:57:22,26.094,-78.454,354.79,-9,1019.79,1016.88,24.11,24.19,36.562,1.460682,79.38,31.04,1019.79,107.9,22.5,287.7,18.51,346.65,2,-9,9,-9,0.14,19.34,356.1,21.95,-9
AOML_Explorer,Ex0516E,108.125,18042005,2:59:55,26.089,-78.437,354.49,-9,1019.69,1016.87,24.12,24.17,36.568,1.449701,79.01,31.04,1019.69,107.9,22.4,289,16.91,345.95,2,-9,9,-9,0.14,17.84,354.19,22.12,-9
AOML_Explorer,Ex0516E,108.137,18042005,3:16:34,26.059,-78.326,354.35,-9,1019.82,1016.61,23.79,23.89,36.683,1.43628,80.63,31.08,1019.82,108.2,23,283.2,18.61,346.68,2,-9,9,-9,0.14,20.04,354.06,21.92,-9
AOML_Explorer,Ex0516E,108.138,18042005,3:19:07,26.054,-78.309,354.34,-9,1019.84,1016.83,23.81,23.92,36.664,1.448989,80.63,31.09,1019.84,107.4,22.9,289.4,18.01,346.79,2,-9,9,-9,0.13,18.18,357.54,22.16,-9
AOML_Explorer,Ex0516E,108.14,18042005,3:21:40,26.049,-78.292,354.43,-9,1019.71,1016.85,23.85,23.9,36.66,1.444922,79.78,31.09,1019.71,106.7,22.9,290.9,18.81,346.08,2,-9,9,-9,0.14,18.42,0.05,22.08,-9
AOML_Explorer,Ex0516E,108.142,18042005,3:24:13,26.044,-78.275,354.33,-9,1019.57,1016.33,23.84,24.33,36.479,1.457123,80.3,31.09,1019.57,107.8,23.1,282.3,19.21,351.69,2,-9,9,-9,0.14,20.23,355.81,22.1,-9
AOML_Explorer,Ex0516E,108.144,18042005,3:26:46,26.039,-78.257,354.27,-9,1019.46,1016.06,24.02,24.45,36.468,1.458547,80.06,31.09,1019.46,107.2,23.1,282.5,20.31,350.75,2,-9,9,-9,0.14,21.17,356.73,22.05,-9
AOML_Explorer,Ex0516E,108.145,18042005,3:29:19,26.034,-78.24,354.05,-9,1019.51,1016.55,24.25,24.56,36.449,1.434958,78.53,31.09,1019.51,108.3,23.1,289.6,19.21,348.71,2,-9,9,-9,0.16,18.89,1.42,22,-9
AOML_Explorer,Ex0516E,108.147,18042005,3:31:52,26.029,-78.223,354.32,-9,1019.74,1016.61,24.37,24.63,36.451,1.429264,80.34,31.09,1019.74,107.1,23.1,285.2,19.41,348.31,2,-9,9,-9,0,19.95,357.05,21.93,-9
AOML_Explorer,Ex0516E,108.149,18042005,3:34:25,26.024,-78.205,354.67,-9,1019.72,1016.32,24.46,24.64,36.454,1.441465,80.45,31.09,1019.72,107.1,23.2,288.8,19.81,347.59,2,-9,9,-9,0.17,20.03,358.86,21.84,-9
AOML_Explorer,Ex0516E,108.151,18042005,3:36:58,26.02,-78.188,355.22,-9,1019.9,1016.6,24.5,24.64,36.456,1.434551,80.33,31.08,1019.9,107.4,23.3,293.5,18.51,347.73,2,-9,9,-9,0.17,17.64,1.88,21.96,-9
AOML_Explorer,Ex0516E,108.152,18042005,3:39:31,26.015,-78.17,355.61,-9,1019.55,1016.85,24.51,24.63,36.462,1.440957,80.16,31.08,1019.55,106.9,23.1,288.6,17.11,347.72,2,-9,9,-9,0.18,17.66,354.33,21.86,-9
AOML_Explorer,Ex0516E,108.154,18042005,3:42:04,26.01,-78.153,355.83,-9,1019.71,1016.33,24.51,24.61,36.466,1.448684,79.76,31.08,1019.71,107,23.1,288.1,19.31,347.7,2,-9,9,-9,0,19.55,358.08,21.82,-9
AOML_Explorer,Ex0516E,108.156,18042005,3:44:37,26.005,-78.136,356.03,-9,1019.62,1016.32,24.5,24.59,36.456,1.437398,79.57,31.08,1019.62,107.2,23.1,284,18.71,347.78,2,-9,9,-9,0.16,19.84,354.12,21.83,-9
AOML_Explorer,Ex0516E,108.158,18042005,3:47:10,26,-78.118,356.18,-9,1019.59,1016.3,24.48,24.58,36.454,1.387679,78.99,31.08,1019.59,107.5,23.2,283.9,18.31,348.1,2,-9,9,-9,0.17,19.61,353.4,21.81,-9
AOML_Explorer,Ex0516E,108.16,18042005,3:49:43,25.995,-78.101,356.16,-9,1019.69,1016.58,24.47,24.57,36.455,1.403744,80.39,31.07,1019.69,107.1,23,281.3,17.61,348.14,2,-9,9,-9,0.17,19.35,350.48,21.9,-9
AOML_Explorer,Ex0516E,108.161,18042005,3:52:16,25.991,-78.084,356.2,-9,1019.7,1016.59,24.46,24.63,36.439,1.399778,80.1,31.07,1019.7,107,22.9,285.6,17.61,348.97,2,-9,9,-9,0,18.56,353.77,21.91,-9
AOML_Explorer,Ex0516E,108.163,18042005,3:54:49,25.986,-78.067,356.02,-9,1019.7,1016.6,24.46,24.97,36.362,1.390933,80.35,31.07,1019.7,106.9,22.8,285.7,18.51,353.32,2,-9,9,-9,0.18,19.09,356.02,21.84,-9
AOML_Explorer,Ex0516E,108.165,18042005,3:57:22,25.981,-78.049,356.02,-9,1019.78,1016.59,24.63,25.13,36.367,1.390526,80,31.07,1019.78,107.6,22.8,284.6,18.11,353.03,2,-9,9,-9,0.19,19.01,355.16,21.76,-9
AOML_Explorer,Ex0516E,108.167,18042005,3:59:55,25.976,-78.032,357.14,-9,1019.51,1016.31,24.88,25.17,36.369,1.385137,80.79,31.07,1019.51,107.6,22.7,287.1,19.01,351.2,2,-9,9,-9,0.19,19.28,358.48,21.96,-9
AOML_Explorer,Ex0516E,108.176,18042005,4:14:01,25.949,-77.939,360.66,-9,1019.48,1016.31,24.97,25.12,36.355,1.404659,80.18,31.1,1019.48,112.4,22.5,283.4,19.31,352.64,2,-9,9,-9,0.2,20.54,359.87,21.75,-9
AOML_Explorer,Ex0516E,108.178,18042005,4:16:34,25.943,-77.922,360.99,-9,1019.63,1016.62,24.97,25.05,36.354,1.412488,80.46,31.1,1019.63,112.9,22.4,288.4,19.01,352.26,2,-9,9,-9,0.27,19.3,3.91,21.81,-9
AOML_Explorer,Ex0516E,108.18,18042005,4:19:07,25.937,-77.906,361.13,-9,1019.58,1016.34,24.93,25.05,36.344,1.398965,79.78,31.11,1019.58,112.9,22.4,286.9,19.11,352.77,2,-9,9,-9,0.23,19.79,2.46,21.84,-9
AOML_Explorer,Ex0516E,108.182,18042005,4:21:40,25.931,-77.89,361.01,-9,1019.3,1016.08,24.9,25.04,36.354,1.407404,79.89,31.11,1019.3,112.6,22.4,283.8,18.71,352.87,2,-9,9,-9,0.24,20.03,359.11,21.79,-9
AOML_Explorer,Ex0516E,108.183,18042005,4:24:13,25.925,-77.874,360.5,-9,1019.39,1016.32,24.9,25,36.363,1.374563,80.32,31.11,1019.39,112.8,22,285.9,18.11,351.92,2,-9,9,-9,0.23,19.09,0.44,21.81,-9
AOML_Explorer,Ex0516E,108.185,18042005,4:26:46,25.92,-77.858,360.08,-9,1019.5,1016.33,24.87,24.97,36.36,1.392763,79.99,31.11,1019.5,108.5,21.9,287.2,18.31,351.51,2,-9,9,-9,0.23,18.94,357.74,21.89,-9
AOML_Explorer,Ex0516E,108.187,18042005,4:29:19,25.915,-77.841,359.89,-9,1019.51,1016.35,24.84,24.94,36.37,1.379545,78.66,31.11,1019.51,107.2,22,292.9,19.01,351.35,2,-9,9,-9,0.22,18.67,1.06,21.79,-9
AOML_Explorer,Ex0516E,108.189,18042005,4:31:52,25.91,-77.825,359.45,-9,1019.45,1016.59,24.82,24.92,36.373,1.393881,80.08,31.11,1019.45,106.3,22,291.2,17.91,351.01,2,-9,9,-9,0.23,18.89,353.82,21.73,-9
AOML_Explorer,Ex0516E,108.191,18042005,4:34:25,25.906,-77.808,359.19,-9,1019.31,1016.59,24.79,24.89,36.382,1.391543,80.97,31.1,1019.31,106.3,22,293,17.11,350.69,2,-9,9,-9,0.23,16.76,358.45,21.68,-9
AOML_Explorer,Ex0516E,108.192,18042005,4:36:58,25.902,-77.791,358.93,-9,1019.43,1016.34,24.77,24.88,36.381,1.409742,80.02,31.1,1019.43,106.5,21.9,288,17.61,350.56,2,-9,9,-9,0.24,18.38,354.56,21.7,-9
AOML_Explorer,Ex0516E,108.194,18042005,4:39:31,25.897,-77.775,358.74,-9,1019.35,1016.33,24.75,24.85,36.392,1.397745,80.02,31.1,1019.35,106.5,22,293.2,17.51,350.23,2,-9,9,-9,0.24,17.35,358.3,21.72,-9
AOML_Explorer,Ex0516E,108.196,18042005,4:42:04,25.893,-77.758,358.56,-9,1019.28,1016.32,24.74,24.83,36.397,1.381883,80.5,31.1,1019.28,106.6,21.9,290.4,18.41,349.91,2,-9,9,-9,0.22,18.65,357.64,21.74,-9
AOML_Explorer,Ex0516E,108.198,18042005,4:44:37,25.888,-77.742,358.42,-9,1019.37,1016.32,24.71,24.79,36.414,1.392051,80.26,31.09,1019.37,106.9,22,292.2,18.81,349.76,2,-9,9,-9,0.23,18.63,0.16,21.71,-9
AOML_Explorer,Ex0516E,108.199,18042005,4:47:10,25.884,-77.725,358.19,-9,1019.29,1016.08,24.68,24.76,36.426,1.38595,80.47,31.09,1019.29,106.4,21.9,284.4,18.21,349.41,2,-9,9,-9,0.23,19.55,352.56,21.65,-9
AOML_Explorer,Ex0516E,108.201,18042005,4:49:43,25.879,-77.709,358.13,-9,1019.33,1016.29,24.65,24.74,36.433,1.396321,80.05,31.09,1019.33,106.6,21.9,290.8,17.61,349.61,2,-9,9,-9,0.23,17.84,356.85,21.65,-9
AOML_Explorer,Ex0516E,108.203,18042005,4:52:16,25.875,-77.692,357.9,-9,1019.16,1016.3,24.63,24.72,36.437,1.394695,80.1,31.09,1019.16,106.4,22,288.3,18.31,349.39,2,-9,9,-9,0.21,18.93,355.74,21.75,-9
AOML_Explorer,Ex0516E,108.205,18042005,4:54:49,25.87,-77.675,357.65,-9,1019.29,1016.32,24.61,24.7,36.443,1.382595,79.29,31.08,1019.29,106.8,22,292.8,17.51,349.08,2,-9,9,-9,0.21,17.47,358.09,21.7,-9
AOML_Explorer,Ex0516E,108.207,18042005,4:57:22,25.866,-77.659,357.54,-9,1019.28,1016.33,24.59,24.67,36.448,1.365615,78.24,31.08,1019.28,106.9,22,289.9,17.41,348.87,2,-9,9,-9,0.18,17.87,355.99,21.69,-9
AOML_Explorer,Ex0516E,108.208,18042005,4:59:55,25.862,-77.642,357.34,-9,1019.3,1016.31,24.57,24.61,36.455,1.404659,80.3,31.08,1019.3,106,22.2,285.2,17.51,348.3,2,-9,9,-9,0.19,17.64,356.21,21.72,-9
AOML_Explorer,Ex0516E,108.222,18042005,5:19:07,25.829,-77.515,355.94,-9,1019.22,1016.27,24.44,24.43,36.488,1.395305,80.37,31.11,1019.22,105.6,22.3,288,16.31,346.2,2,-9,9,-9,0.15,17.22,351.34,21.12,-9
AOML_Explorer,Ex0516E,108.223,18042005,5:21:40,25.824,-77.498,356.11,-9,1018.98,1016.28,24.34,24.43,36.503,1.394695,80.13,31.11,1018.98,105.3,22.3,287.8,16.21,347.68,2,-9,9,-9,0.16,17.17,350.83,21.34,-9
AOML_Explorer,Ex0516E,108.225,18042005,5:24:13,25.82,-77.481,356.16,-9,1019.21,1016.3,24.33,24.39,36.515,1.398253,80.47,31.11,1019.21,105,22.2,291.6,16.41,347.42,2,-9,9,-9,0.17,16.52,354.17,21.27,-9
AOML_Explorer,Ex0516E,108.227,18042005,5:26:46,25.816,-77.465,356.29,-9,1019.34,1016.57,24.31,24.39,36.506,1.375885,80.9,31.11,1019.34,104.6,22.1,302.7,15.51,347.87,2,-9,9,-9,0.16,13.53,1.25,20.92,-9
AOML_Explorer,Ex0516E,108.229,18042005,5:29:19,25.813,-77.448,356.31,-9,1019.35,1016.58,24.29,24.39,36.514,1.398558,80.11,31.11,1019.35,103.5,22,297.1,13.91,348.13,2,-9,9,-9,0.17,13.42,351.4,20.86,-9
AOML_Explorer,Ex0516E,108.23,18042005,5:31:52,25.809,-77.431,356.34,-9,1019.3,1016.57,24.29,24.38,36.515,1.391034,78.31,31.1,1019.3,103.5,22.1,293.3,14.71,348.05,2,-9,9,-9,0.18,14.67,350.79,20.82,-9
AOML_Explorer,Ex0516E,108.232,18042005,5:34:25,25.805,-77.414,356.36,-9,1019.25,1016.29,24.29,24.37,36.515,1.394186,79.95,31.1,1019.25,103.3,22.1,290.5,14.71,347.94,2,-9,9,-9,0.17,15.19,348.71,20.94,-9
AOML_Explorer,Ex0516E,108.234,18042005,5:36:58,25.802,-77.397,356.3,-9,1019.16,1016.32,24.28,24.38,36.505,1.385747,80.36,31.09,1019.16,103.4,22.2,291.8,14.31,348.16,2,-9,9,-9,0.17,14.7,348.32,20.97,-9
AOML_Explorer,Ex0516E,108.236,18042005,5:39:31,25.798,-77.38,356.18,-9,1019.12,1016.31,24.28,24.39,36.506,1.382595,79.98,31.09,1019.12,103.5,22.1,288.8,15.91,348.14,2,-9,9,-9,0.16,16.43,350.65,21.13,-9
AOML_Explorer,Ex0516E,108.238,18042005,5:42:04,25.794,-77.364,356.15,-9,1018.92,1016.31,24.28,24.38,36.501,1.37802,80.04,31.09,1018.92,103.9,22.1,290.7,17.41,347.8,2,-9,9,-9,0.16,17.2,355.51,21.17,-9
AOML_Explorer,Ex0516E,108.239,18042005,5:44:37,25.79,-77.347,356.15,-9,1019.05,1016.06,24.28,24.38,36.498,1.384019,80.68,31.08,1019.05,104,22.1,294.7,17.61,347.81,2,-9,9,-9,0.16,16.66,359.09,21.3,-9
AOML_Explorer,Ex0516E,108.241,18042005,5:47:10,25.787,-77.33,356.04,-9,1018.89,1016.32,24.28,24.37,36.497,1.383104,79.2,31.08,1018.89,104,22,295.7,17.01,347.67,2,-9,9,-9,0.17,15.94,358.95,21.42,-9
AOML_Explorer,Ex0516E,108.243,18042005,5:49:43,25.783,-77.313,356.06,-9,1018.88,1015.8,24.28,24.32,36.51,1.380155,78.85,31.07,1018.88,104.1,22,292.6,17.81,347.11,2,-9,9,-9,0.18,17.23,358.03,21.56,-9
AOML_Explorer,Ex0516E,108.245,18042005,5:52:16,25.779,-77.296,355.95,-9,1018.94,1015.77,24.26,24.26,36.513,1.394186,79.97,31.07,1018.94,104.4,22,293.6,18.51,346.43,2,-9,9,-9,0.17,17.67,0.24,21.51,-9
AOML_Explorer,Ex0516E,108.246,18042005,5:54:49,25.775,-77.28,356,-9,1019.13,1015.53,24.2,24.22,36.499,1.380358,80.41,31.06,1019.13,104.4,21.7,295.7,19.11,346.78,2,-9,9,-9,0.18,17.75,3.44,21.56,-9
AOML_Explorer,Ex0516E,108.248,18042005,5:57:22,25.771,-77.263,356.13,-9,1018.93,1016.29,24.16,24.2,36.508,1.354431,80.45,31.06,1018.93,104.9,21.5,291.5,17.21,347.16,2,-9,9,-9,0.19,17.04,356.59,21.57,-9
AOML_Explorer,Ex0516E,108.25,18042005,5:59:55,25.767,-77.247,356.3,-9,1018.86,1016.59,24.13,24.18,36.48,1.391746,80.41,31.06,1018.86,104.5,21.5,306,16.41,347.52,2,-9,9,-9,0.19,13.47,7.61,21.78,-9
AOML_Explorer,Ex0516E,108.263,18042005,6:19:07,25.743,-77.121,356.12,-9,1018.73,1015.81,24.16,24.26,36.478,1.433636,80.94,31.09,1018.73,101.2,21.8,296.7,16.61,347.88,2,-9,9,-9,0.16,16.07,353.71,21.5,-9
AOML_Explorer,Ex0516E,108.267,18042005,6:24:13,25.738,-77.088,355.46,-9,1018.83,1015.55,24.09,24.29,36.473,1.064758,80.41,31.09,1018.83,99,21.8,297.6,18.41,348.69,2,-9,9,-9,0.21,15.9,2.8,21.57,-9
AOML_Explorer,Ex0516E,108.27,18042005,6:29:19,25.733,-77.054,356.94,-9,1018.42,1015.57,24.13,24.21,36.51,1.409641,81.02,31.09,1018.42,99.4,21.9,304.6,17.81,348.34,2,-9,9,-9,0.18,16.9,355.17,21.44,-9
AOML_Explorer,Ex0516E,108.272,18042005,6:31:52,25.73,-77.037,356.62,-9,1018.41,1015.26,24.13,24.25,36.497,1.446142,80.11,31.08,1018.41,98.8,21.9,299.8,17.71,348.56,2,-9,9,-9,0.17,16.09,357.86,21.48,-9
AOML_Explorer,Ex0516E,108.274,18042005,6:34:25,25.728,-77.02,356.66,-9,1018.49,1015.56,24.1,24.3,36.484,1.417063,79.4,31.08,1018.49,99.2,21.9,295.8,17.51,349.61,2,-9,9,-9,0.18,17.21,351.81,21.47,-9
AOML_Explorer,Ex0516E,108.276,18042005,6:36:58,25.725,-77.004,356.55,-9,1018.59,1015.54,24.1,24.3,36.466,1.419198,80.18,31.07,1018.59,100.1,21.6,300.4,16.71,349.56,2,-9,9,-9,0.17,15.09,356.85,21.38,-9
AOML_Explorer,Ex0516E,108.277,18042005,6:39:31,25.723,-76.987,356.68,-9,1018.37,1016.06,24.14,24.3,36.467,1.410759,79.73,31.07,1018.37,97.1,21.6,296.5,15.31,348.94,2,-9,9,-9,0.18,15.03,347.13,21.48,-9
AOML_Explorer,Ex0516E,108.279,18042005,6:42:04,25.721,-76.97,356.64,-9,1018.38,1015.54,24.16,24.29,36.472,1.091397,80.37,31.06,1018.38,98.3,21.7,299.5,17.01,348.66,2,-9,9,-9,0.19,15.82,354.17,21.4,-9
AOML_Explorer,Ex0516E,108.51,18042005,12:14:01,24.776,-75,354.7,-9,1019.2,1016.63,23.72,23.85,36.967,1.405879,80.4,30.74,1019.2,123.3,20.4,279.8,14.01,347.32,2,-9,9,-9,0.11,16.35,1.72,21.69,-9
AOML_Explorer,Ex0516E,108.512,18042005,12:16:34,24.768,-74.987,355.04,-9,1019.26,1016.13,23.73,23.86,36.969,1.396728,80.31,30.74,1019.26,125.2,20.6,280.4,15.31,347.58,2,-9,9,-9,0.12,17.63,5.78,21.7,-9
AOML_Explorer,Ex0516E,108.513,18042005,12:19:07,24.76,-74.975,355.38,-9,1019.3,1016.63,23.74,23.86,36.965,1.351177,80.93,30.74,1019.3,124,20.2,275.1,14.21,347.81,2,-9,9,-9,0.12,17.15,359.83,21.71,-9
AOML_Explorer,Ex0516E,108.515,18042005,12:21:40,24.752,-74.962,355.61,-9,1019.21,1016.35,23.73,23.85,36.969,1.455293,81.29,30.75,1019.21,123.9,20.4,281.7,14.51,348.11,2,-9,9,-9,0.11,16.51,4.9,21.82,-9
AOML_Explorer,Ex0516E,108.517,18042005,12:24:13,24.743,-74.948,355.65,-9,1019.24,1016.61,23.74,23.85,36.969,1.404455,80.93,30.74,1019.24,124.8,20.7,280.5,13.81,347.95,2,-9,9,-9,0.11,16.2,2.26,21.84,-9
AOML_Explorer,Ex0516E,108.519,18042005,12:26:46,24.735,-74.935,355.79,-9,1019.35,1016.63,23.74,23.85,36.97,1.420012,80.66,30.74,1019.35,125.2,20.6,282.6,15.41,348.08,2,-9,9,-9,0.12,17.16,7.2,21.85,-9
AOML_Explorer,Ex0516E,108.52,18042005,12:29:19,24.727,-74.922,355.84,-9,1019.23,1016.35,23.74,23.87,36.979,1.425401,80.13,30.74,1019.23,126.1,20.6,283.2,14.81,348.37,2,-9,9,-9,0.11,16.65,6.45,21.82,-9
AOML_Explorer,Ex0516E,108.522,18042005,12:31:52,24.718,-74.909,355.78,-9,1019.28,1016.35,23.75,23.85,36.992,1.422249,81.11,30.74,1019.28,125.1,20.7,276.3,14.41,347.98,2,-9,9,-9,0.11,17.46,0.61,21.78,-9
AOML_Explorer,Ex0516E,108.524,18042005,12:34:25,24.71,-74.896,355.71,-9,1019.08,1016.33,23.75,23.86,36.987,1.423265,80.91,30.74,1019.08,125.3,20.6,277.9,15.01,347.99,2,-9,9,-9,0.11,17.82,1.19,21.88,-9
AOML_Explorer,Ex0516E,108.526,18042005,12:36:58,24.702,-74.883,355.79,-9,1019.2,1016.12,23.74,23.87,36.985,1.394898,80.94,30.74,1019.2,125.5,20.8,274.6,16.01,348.34,2,-9,9,-9,0.11,18.93,3,21.79,-9
AOML_Explorer,Ex0516E,108.527,18042005,12:39:31,24.693,-74.87,355.85,-9,1019.28,1016.37,23.75,23.87,36.991,1.40476,80.63,30.73,1019.28,125.4,20.7,279.3,15.31,348.4,2,-9,9,-9,0.11,17.72,4.42,21.83,-9
AOML_Explorer,Ex0516E,108.529,18042005,12:42:04,24.685,-74.857,355.7,-9,1019.09,1016.37,23.75,23.87,36.99,1.41747,81.1,30.73,1019.09,125.5,20.8,280.3,15.61,348.11,2,-9,9,-9,0.11,17.65,6,21.81,-9
AOML_Explorer,Ex0516E,108.531,18042005,12:44:37,24.677,-74.844,355.85,-9,1019.38,1016.35,23.76,23.86,36.989,1.422554,80.06,30.73,1019.38,123.9,20.5,282.8,15.11,348.13,2,-9,9,-9,0.11,16.95,6.91,21.91,-9
AOML_Explorer,Ex0516E,108.533,18042005,12:47:10,24.668,-74.831,355.77,-9,1019.18,1016.37,23.75,23.86,36.982,1.40232,80.78,30.72,1019.18,126.5,20.6,276.2,14.21,348.08,2,-9,9,-9,0.11,17.39,0.41,21.84,-9
AOML_Explorer,Ex0516E,108.535,18042005,12:49:43,24.66,-74.818,355.69,-9,1019.36,1016.6,23.75,23.87,36.98,1.387171,80.37,30.72,1019.36,124.6,20.5,279.4,14.41,348.24,2,-9,9,-9,0.11,16.83,2.93,21.95,-9
AOML_Explorer,Ex0516E,108.536,18042005,12:52:16,24.652,-74.805,355.51,-9,1019.35,1016.38,23.75,23.87,36.978,1.42052,81.04,30.71,1019.35,124.9,20.3,276.8,15.61,348.04,2,-9,9,-9,0.11,18.12,3.99,21.98,-9
AOML_Explorer,Ex0516E,108.538,18042005,12:54:49,24.644,-74.792,355.32,-9,1019.72,1016.65,23.76,23.9,36.961,1.328097,79.95,30.71,1019.72,121.9,20,275.5,14.41,348.17,2,-9,9,-9,0.11,17.26,356.37,22.05,-9
AOML_Explorer,Ex0516E,108.705,18042005,16:54:49,23.813,-73.526,361.33,-9,1018.14,1015.32,24.7,24.91,36.84,1.418385,79.74,31.12,1018.14,128.2,22.1,274.5,16.41,353.72,2,-9,9,-9,0.11,19.87,3.45,22.67,-9
AOML_Explorer,Ex0516E,108.707,18042005,16:57:22,23.804,-73.512,360.88,-9,1018.33,1015.32,24.74,24.94,36.83,1.441465,80.03,31.11,1018.33,127.9,21.9,278.5,16.71,353.28,2,-9,9,-9,0.1,19.37,7.1,22.75,-9
AOML_Explorer,Ex0516E,108.708,18042005,16:59:55,23.794,-73.499,360.51,-9,1018.47,1015.6,24.77,24.95,36.813,1.434856,80.04,31.12,1018.47,127.9,22.1,277.5,15.41,352.77,2,-9,9,-9,0.1,18.28,4.71,22.75,-9
AOML_Explorer,Ex0516E,108.722,18042005,17:19:07,23.722,-73.397,359.95,-9,1018.09,1015.32,24.8,24.88,36.896,1.450311,79.77,31.17,1018.09,127.9,22.3,277.5,15.21,350.72,2,-9,9,-9,0.1,18.55,2.37,22.88,-9
AOML_Explorer,Ex0516E,108.723,18042005,17:21:40,23.712,-73.384,360.37,-9,1018.09,1015.32,24.77,24.85,36.913,1.425197,79.31,31.18,1018.09,129.2,22.3,277.9,14.81,351.18,2,-9,9,-9,0.1,18.11,3.55,22.79,-9
AOML_Explorer,Ex0516E,108.725,18042005,17:24:13,23.702,-73.371,360.84,-9,1018.29,1015.29,24.73,24.83,36.922,1.452751,80.86,31.17,1018.29,125.1,21.9,278.2,15.01,351.91,2,-9,9,-9,0.1,18.19,0.8,22.79,-9
AOML_Explorer,Ex0516E,108.727,18042005,17:26:46,23.692,-73.357,361.34,-9,1018.08,1015.28,24.7,24.81,36.922,1.417368,80.52,31.18,1018.08,126.8,22.1,279.2,15.41,352.52,2,-9,9,-9,0.1,18.27,4.28,22.9,-9
AOML_Explorer,Ex0516E,108.729,18042005,17:29:19,23.683,-73.344,361.77,-9,1017.96,1015.04,24.68,24.79,36.938,1.433535,80.31,31.18,1017.96,128.7,22.1,277.8,16.31,352.88,2,-9,9,-9,0.1,19.34,6.23,22.77,-9
AOML_Explorer,Ex0516E,108.73,18042005,17:31:52,23.673,-73.331,362.1,-9,1017.96,1015.31,24.68,24.74,36.941,1.429162,80.1,31.18,1017.96,128.6,22.2,281.5,16.11,352.61,2,-9,9,-9,0.1,18.48,8.36,22.8,-9
AOML_Explorer,Ex0516E,108.732,18042005,17:34:25,23.663,-73.317,362.36,-9,1017.86,1015.04,24.63,24.71,36.941,1.450718,79.81,31.18,1017.86,128.3,22.2,278.4,15.51,353.06,2,-9,9,-9,0.1,18.55,5.55,22.77,-9
AOML_Explorer,Ex0516E,108.736,18042005,17:39:31,23.643,-73.291,362.32,-9,1017.91,1015.34,24.52,24.73,36.936,1.062521,80.3,31.17,1017.91,128.7,22.1,284.9,15.61,354.88,2,-9,9,-9,0.15,17.48,9.93,22.93,-9
AOML_Explorer,Ex0516E,108.738,18042005,17:42:04,23.633,-73.277,363.36,-9,1017.72,1014.73,24.46,24.88,36.896,1.44238,80.23,31.17,1017.72,127.8,22.2,282.8,16.51,358.58,2,-9,9,-9,0.1,18.56,9.73,22.91,-9
AOML_Explorer,Ex0516E,108.739,18042005,17:44:37,23.623,-73.264,364.22,-9,1017.5,1014.75,24.5,24.93,36.857,1.422757,80.03,31.17,1017.5,130.3,22.2,277,16.31,359.41,2,-9,9,-9,0.1,19.03,7.06,22.82,-9
AOML_Explorer,Ex0516E,108.741,18042005,17:47:10,23.613,-73.251,363.76,-9,1017.56,1014.51,24.68,25.04,36.846,1.414928,79.86,31.16,1017.56,129.6,22,278.9,16.41,358.06,2,-9,9,-9,0.1,19.14,7.78,22.89,-9
AOML_Explorer,Ex0516E,108.743,18042005,17:49:43,23.604,-73.238,362.71,-9,1017.49,1014.79,24.82,25.07,36.85,1.43628,80.06,31.16,1017.49,128.8,21.9,272.4,16.11,355.28,2,-9,9,-9,0.1,19.64,3.78,22.78,-9
AOML_Explorer,Ex0516E,108.745,18042005,17:52:16,23.594,-73.225,362.21,-9,1017.35,1014.49,24.91,25.01,36.897,1.430281,80.38,31.16,1017.35,128.3,21.7,275.5,15.01,352.9,2,-9,9,-9,0.1,18.44,2.25,22.71,-9
AOML_Explorer,Ex0516E,108.746,18042005,17:54:49,23.584,-73.211,362.22,-9,1017.5,1014.79,24.88,24.93,36.94,1.440753,80.35,31.16,1017.5,126.6,21.9,277.7,15.41,352.23,2,-9,9,-9,0.11,18.32,3.43,22.93,-9
AOML_Explorer,Ex0516E,108.748,18042005,17:57:22,23.575,-73.198,362.82,-9,1017.24,1014.19,24.81,24.92,36.933,1.431399,78.22,31.15,1017.24,125,21.8,276.2,17.31,353.56,2,-9,9,-9,0.11,19.97,5.33,22.88,-9
AOML_Explorer,Ex0516E,108.75,18042005,17:59:55,23.566,-73.184,363.73,-9,1017.37,1014.22,24.77,24.99,36.937,1.421537,80.18,31.15,1017.37,126.9,21.9,273.9,16.81,355.98,2,-9,9,-9,0.11,19.78,4.38,22.82,-9
AOML_Explorer,Ex0516E,108.833,18042005,19:59:55,23.127,-72.555,367.58,-9,1016.32,1013.47,25.86,26.02,36.536,1.403439,79.89,31.35,1016.32,127,21.3,279.4,14.01,357.88,2,-9,9,-9,0.13,17.01,2.2,23.28,-9